#timestamp,LO_Frequency,Hit,StdDev 
1540904415.1,286047003.6,P
1540904435.9,286047000.5,N
1540904455.7,286047000.0,N
1540904475.5,286047000.1,N
1540904495.4,286047001.2,N
1540904515.2,286047001.1,N
1540904535.1,286047003.8,N
1540904536.0,286047003.8,N
1540904555.8,286047003.7,N
1540904575.6,286047005.9,N
1540904595.5,286047004.2,N
1540904615.3,286047003.6,N
1540904635.1,286047003.2,N
1540904655.9,286047003.9,N
1540904675.7,286047002.6,N
1540904695.6,286047000.4,N
1540904715.4,286047000.0,N
1540904735.2,286047001.4,N
1540904755.1,286047005.8,N
1540904756.0,286047005.8,N
1540904775.8,286047005.1,N
1540904795.6,286047005.1,N
1540904815.5,286047003.1,N
1540904835.3,286047002.0,N
1540904855.2,286047003.6,N
1540904875.9,286047005.1,N
1540904895.7,286047007.3,Y
1540904915.6,286047005.9,P
1540904935.4,286047005.1,P
1540904955.3,286047004.9,P
1540904975.1,286047005.2,Y
1540904976.0,286047005.2,P
1540904995.8,286046999.7,N
1540905015.7,286047001.9,N
1540905035.5,286047002.5,N
1540905055.3,286047002.4,N
1540905075.2,286047001.0,N
1540905095.0,286046998.7,N
1540905095.9,286046998.7,N
1540905115.8,286047000.0,N
1540905135.6,286047000.5,N
1540905155.4,286047001.2,N
1540905175.3,286047001.2,N
1540905195.1,286047000.9,N
1540905215.8,286046998.2,N
1540905235.7,286046999.4,N
1540905255.5,286046997.3,N
1540905275.4,286046996.7,N
1540905295.2,286046996.9,N
1540905315.0,286046997.4,N
1540905315.9,286046997.4,N
1540905335.8,286046997.7,N
1540905355.6,286046997.2,N
1540905375.5,286046997.4,N
1540905395.3,286046999.4,N
1540905415.1,286046999.6,N
1540905435.9,286046999.1,N
1540905455.7,286046997.8,N
1540905475.5,286046996.8,N
1540905495.4,286046999.3,N
1540905515.2,286046996.8,N
1540905535.1,286046999.1,N
1540905536.0,286046999.1,N
1540905555.8,286046997.5,N
1540905575.6,286046997.8,N
1540905595.5,286046996.4,N
1540905615.3,286046993.4,Y
1540905635.2,286046995.2,P
1540905655.9,286046994.9,P
1540905675.7,286046998.0,N
1540905695.6,286046995.1,Y
1540905715.4,286046996.5,P
1540905735.2,286046996.5,P
1540905755.1,286046998.8,P
1540905756.0,286046998.8,N
1540905775.8,286046998.1,N
1540905795.7,286046999.0,N
1540905815.5,286046996.5,Y
1540905835.3,286047000.0,P
1540905855.2,286047000.2,N
1540905875.0,286047000.2,N
1540905875.9,286047000.2,N
1540905895.8,286047000.1,N
1540905915.6,286046999.8,N
1540905935.4,286047002.6,Y
1540905955.3,286047002.2,P
1540905975.1,286047003.9,P
1540905995.9,286047001.3,N
1540906015.7,286047002.4,N
1540906035.5,286047002.1,N
1540906055.4,286047001.7,N
1540906075.2,286047003.0,N
1540906095.0,286047003.2,N
1540906095.9,286047003.2,N
1540906115.8,286047003.5,Y
1540906135.6,286047002.6,P
1540906155.5,286047003.6,P
1540906175.3,286047003.0,P
1540906195.1,286047003.5,Y
1540906215.9,286046999.8,P
1540906235.7,286047002.6,N
1540906255.6,286047001.3,N
1540906275.4,286047001.8,N
1540906295.2,286047004.1,Y
1540906315.1,286047000.2,P
1540906316.0,286047000.2,N
1540906335.8,286047000.5,N
1540906355.7,286047000.8,N
1540906375.5,286047000.6,N
1540906395.3,286046999.0,N
1540906415.2,286046998.2,N
1540906435.0,286046998.4,N
1540906435.9,286046998.4,N
1540906455.7,286046996.7,N
1540906475.6,286046996.7,N
1540906495.4,286046997.4,N
1540906515.3,286046999.4,N
1540906535.1,286046995.6,N
1540906536.0,286046995.6,N
1540906555.8,286046996.2,N
1540906575.7,286046995.1,N
1540906595.5,286046997.1,N
1540906615.3,286046999.6,N
1540906635.2,286046997.9,N
1540906655.0,286046997.6,N
1540906655.9,286046997.6,N
1540906675.8,286046994.9,N
1540906695.6,286046995.3,N
1540906715.4,286046993.9,Y
1540906735.3,286046992.2,P
1540906755.1,286046992.3,N
1540906775.9,286046995.2,N
1540906795.7,286046995.3,N
1540906815.5,286046994.5,N
1540906835.4,286046996.0,N
1540906855.2,286046996.4,N
1540906875.0,286046996.1,N
1540906875.9,286046996.1,N
1540906895.8,286046997.9,N
1540906915.6,286046997.7,N
1540906935.5,286046997.4,N
1540906955.3,286046997.7,N
1540906975.1,286046995.3,N
1540906995.9,286046999.6,N
1540907015.7,286046997.0,N
1540907035.5,286046999.2,N
1540907055.4,286046998.2,N
1540907075.2,286046998.7,N
1540907095.1,286046997.0,N
1540907096.0,286046997.0,N
1540907115.8,286046997.9,N
1540907135.6,286046997.7,N
1540907155.5,286046999.4,N
1540907175.3,286047002.5,N
1540907195.1,286046999.8,N
1540907215.9,286047000.5,N
1540907235.7,286047004.0,N
1540907255.6,286047001.7,N
1540907275.4,286047000.1,N
1540907295.2,286046998.9,N
1540907315.1,286047002.8,N
1540907316.0,286047002.8,N
1540907335.8,286047002.0,N
1540907355.7,286047000.9,N
1540907375.5,286047000.8,N
1540907395.3,286046999.0,N
1540907415.2,286047000.5,N
1540907435.0,286047000.1,N
1540907435.9,286047000.1,N
1540907455.7,286047001.4,N
1540907475.6,286047005.8,N
1540907495.4,286047005.7,N
1540907515.3,286047003.4,N
1540907535.1,286047003.8,N
1540907536.0,286047003.8,N
1540907555.8,286047004.0,N
1540907575.7,286047003.8,N
1540907595.5,286047004.3,N
1540907615.3,286047001.8,N
1540907635.2,286047004.0,N
1540907655.0,286047002.2,N
1540907655.9,286047002.2,N
1540907675.8,286047000.8,N
1540907695.6,286046998.9,N
1540907715.4,286046997.8,N
1540907735.3,286047000.5,N
1540907755.1,286047002.2,N
1540907775.9,286047002.7,N
1540907795.7,286047002.6,N
1540907815.5,286046998.6,N
1540907835.4,286046997.4,N
1540907855.2,286046997.0,N
1540907875.0,286046999.1,N
1540907875.9,286046999.1,N
1540907895.8,286047000.8,N
1540907915.6,286046998.6,N
1540907935.5,286046998.3,N
1540907955.3,286047001.0,N
1540907975.1,286047002.4,N
1540907995.9,286047003.0,N
